Change the Weather History Date:

Monday, January 28, 2013

  Actual Average Record
Temperature  
Mean Temperature 38 °F -  
Max Temperature 44 °F 24 °F 46 °F (1976)
Min Temperature 32 °F 7 °F -18 °F (2014)
Degree Days  
Heating Degree Days 27    
Moisture  
Dew Point 34 °F    
Average Humidity 97    
Maximum Humidity 100    
Minimum Humidity 93    
Precipitation  
Precipitation 0.48 in - - ()
Sea Level Pressure  
Sea Level Pressure 29.82 in    
Wind  
Wind Speed 1 mph (ESE)    
Max Wind Speed 16 mph    
Max Gust Speed 24 mph    
Visibility 1 miles    
Events Fog , Rain    
Averages and records for this station are not official NWS values.
T = Trace of Precipitation, MM = Missing Value Source: NWS Daily Summary

Daily Weather History Graph

Daily Weather History Graph

Search for Another Location

Airport or City:

Trip Planner

Search our weather history database for the weather conditions in past years. The results will help you decide how hot, cold, wet, or windy it might be!

Date:

Astronomy

Jan. 28, 2013 Rise Set
Actual Time 7:25 AM CST 5:16 PM CST
Civil Twilight 6:55 AM CST 5:46 PM CST
Nautical Twilight 6:21 AM CST 6:20 PM CST
Astronomical Twilight 5:48 AM CST 6:53 PM CST
Moon 7:15 PM CST (1/28) 7:48 AM CST (1/28)
Length of Visible Light 10h 50m
Length of Day
9h 50m
Full, 98% of the Moon is Illuminated
Jan 28
Full
Feb 3
Last Quarter
Feb 10
New
Feb 17
First Quarter
Feb 25
Full

Hourly Weather History & Observations

Time (CST) Temp. Windchill Dew Point Humidity Pressure Visibility Wind Dir Wind Speed Gust Speed Precip Events Conditions
12:15 AM 33.8 °F - 33.8 °F 100% 29.77 in 1.5 mi Calm Calm - 0.01 in   Drizzle
12:35 AM 33.8 °F - 33.8 °F 100% 29.77 in 1.0 mi Calm Calm - 0.01 in   Overcast
12:55 AM 33.8 °F - 33.8 °F 100% 29.77 in 1.0 mi Calm Calm - 0.03 in   Light Drizzle
1:15 AM 33.8 °F - 33.8 °F 100% 29.77 in 0.8 mi Calm Calm - N/A   Overcast
1:35 AM 33.8 °F - 33.8 °F 100% 29.77 in 0.8 mi Calm Calm - N/A Rain Rain
1:55 AM 33.8 °F - 33.8 °F 100% 29.77 in 0.8 mi Calm Calm - N/A Rain Light Rain
2:15 AM 33.8 °F - 33.8 °F 100% 29.77 in 1.0 mi Calm Calm - N/A   Overcast
2:55 AM 33.8 °F - 33.8 °F 100% 29.79 in 1.5 mi Calm Calm - 0.01 in   Overcast
3:15 AM 33.8 °F - 33.8 °F 100% 29.79 in 1.5 mi Calm Calm - N/A   Overcast
3:35 AM 33.8 °F - 33.8 °F 100% 29.79 in 1.5 mi Calm Calm - 0.01 in   Overcast
4:15 AM 33.8 °F - 33.8 °F 100% 29.81 in 0.8 mi Calm Calm - N/A   Overcast
4:35 AM 33.8 °F - 33.8 °F 100% 29.82 in 0.5 mi Calm Calm - 0.01 in Fog Fog
4:55 AM 33.8 °F - 33.8 °F 100% 29.83 in 1.0 mi Calm Calm - 0.02 in   Overcast
5:15 AM 33.8 °F - 33.8 °F 100% 29.84 in 1.0 mi Calm Calm - N/A   Overcast
5:55 AM 33.8 °F - 32.0 °F 93% 29.86 in 1.0 mi Calm Calm - N/A   Overcast
6:15 AM 33.8 °F - 32.0 °F 93% 29.86 in 1.0 mi Calm Calm - N/A   Overcast
6:35 AM 33.8 °F - 32.0 °F 93% 29.86 in 0.8 mi Calm Calm - N/A   Overcast
6:55 AM 33.8 °F - 32.0 °F 93% 29.87 in 0.5 mi Calm Calm - N/A Fog Fog
7:15 AM 32.0 °F - 32.0 °F 100% 29.88 in 0.2 mi Calm Calm - N/A Fog Fog
7:35 AM 32.0 °F - 32.0 °F 100% 29.89 in 0.2 mi Calm Calm - N/A Fog Fog
7:55 AM 32.0 °F - 32.0 °F 100% 29.89 in 0.2 mi Calm Calm - N/A Fog Fog
8:15 AM 32.0 °F - 32.0 °F 100% 29.90 in 0.2 mi Calm Calm - N/A Fog Fog
8:35 AM 32.0 °F - 32.0 °F 100% 29.90 in 0.2 mi Calm Calm - N/A Fog Fog
8:55 AM 32.0 °F - 32.0 °F 100% 29.90 in 0.2 mi Calm Calm - N/A Fog Fog
9:15 AM 32.0 °F - 32.0 °F 100% 29.90 in 0.2 mi Calm Calm - 0.02 in Fog Fog
9:35 AM 32.0 °F - 32.0 °F 100% 29.90 in 0.2 mi Calm Calm - 0.02 in Fog Fog
9:55 AM 32.0 °F - 32.0 °F 100% 29.92 in 0.2 mi Calm Calm - 0.02 in Fog Fog
10:15 AM 32.0 °F - 32.0 °F 100% 29.92 in 0.2 mi Calm Calm - N/A Fog Fog
10:35 AM 32.0 °F - 32.0 °F 100% 29.92 in 0.2 mi Calm Calm - 0.02 in Fog Fog
10:55 AM 32.0 °F - 32.0 °F 100% 29.92 in 0.2 mi Calm Calm - 0.02 in Fog Fog
11:15 AM 32.0 °F - 32.0 °F 100% 29.91 in 0.2 mi Calm Calm - 0.02 in Fog Fog
11:35 AM 32.0 °F - 32.0 °F 100% 29.89 in 0.2 mi Calm Calm - 0.02 in Fog Fog
11:55 AM 32.0 °F - 32.0 °F 100% 29.89 in 0.2 mi Calm Calm - 0.02 in Fog Fog
12:15 PM 33.8 °F - 32.0 °F 93% 29.89 in 0.2 mi Calm Calm - 0.01 in Fog Fog
12:35 PM 33.8 °F - 32.0 °F 93% 29.89 in 0.2 mi Calm Calm - 0.01 in Fog Fog
12:55 PM 33.8 °F - 32.0 °F 93% 29.89 in 0.2 mi Calm Calm - 0.01 in Fog Fog
1:15 PM 33.8 °F - 32.0 °F 93% 29.88 in 0.2 mi Calm Calm - N/A Fog Fog
1:35 PM 33.8 °F - 33.8 °F 100% 29.86 in 0.2 mi Calm Calm - N/A Fog Fog
1:55 PM 33.8 °F - 33.8 °F 100% 29.87 in 0.2 mi Calm Calm - N/A Fog Fog
2:15 PM 33.8 °F - 33.8 °F 100% 29.86 in 0.2 mi Calm Calm - N/A Fog Fog
2:35 PM 33.8 °F - 33.8 °F 100% 29.86 in 0.2 mi Calm Calm - N/A Fog Fog
2:55 PM 33.8 °F - 33.8 °F 100% 29.86 in 0.2 mi Calm Calm - N/A Fog Fog
3:15 PM 33.8 °F - 33.8 °F 100% 29.86 in 0.2 mi Calm Calm - N/A Fog Fog
3:35 PM 35.6 °F - 33.8 °F 93% 29.85 in 0.2 mi Calm Calm - N/A Fog Fog
3:55 PM 35.6 °F - 33.8 °F 93% 29.85 in 0.2 mi Calm Calm - N/A Fog Fog
4:15 PM 35.6 °F - 33.8 °F 93% 29.84 in 0.2 mi Calm Calm - N/A Fog Fog
4:35 PM 35.6 °F - 33.8 °F 93% 29.84 in 0.2 mi Calm Calm - N/A Fog Fog
4:55 PM 35.6 °F - 33.8 °F 93% 29.83 in 0.2 mi Calm Calm - N/A Fog Fog
5:15 PM 35.6 °F - 33.8 °F 93% 29.83 in 0.2 mi Calm Calm - N/A Fog Fog
5:35 PM 35.6 °F - 35.6 °F 100% 29.82 in 0.5 mi Calm Calm - N/A Fog Fog
5:55 PM 35.6 °F - 35.6 °F 100% 29.82 in 2.0 mi Calm Calm - N/A   Overcast
6:15 PM 35.6 °F - 35.6 °F 100% 29.81 in 5.0 mi Calm Calm - N/A   Mostly Cloudy
6:35 PM 35.6 °F - 35.6 °F 100% 29.81 in 4.0 mi Calm Calm - N/A   Scattered Clouds
6:55 PM 37.4 °F - 35.6 °F 93% 29.79 in 5.0 mi Calm Calm - N/A   Mostly Cloudy
7:15 PM 37.4 °F - 37.4 °F 100% 29.79 in 5.0 mi Calm Calm - N/A   Overcast
7:35 PM 39.2 °F 30.8 °F 37.4 °F 93% 29.77 in 5.0 mi ESE 15.0 mph 21.9 mph N/A   Overcast
7:55 PM 39.2 °F 30.5 °F 37.4 °F 93% 29.76 in 4.0 mi ESE 16.1 mph 23.0 mph N/A   Overcast
8:15 PM 39.2 °F 30.8 °F 37.4 °F 93% 29.75 in 1.8 mi ESE 15.0 mph 24.2 mph N/A   Overcast
8:35 PM 37.4 °F 29.8 °F 37.4 °F 100% 29.74 in 0.8 mi ESE 11.5 mph 20.7 mph N/A   Overcast
8:55 PM 37.4 °F 28.2 °F 37.4 °F 100% 29.72 in 0.5 mi ESE 16.1 mph 20.7 mph N/A Fog Fog
9:15 PM 37.4 °F 29.8 °F 37.4 °F 100% 29.70 in 0.5 mi ESE 11.5 mph 20.7 mph N/A Rain Light Rain
9:35 PM 39.2 °F 32.5 °F 37.4 °F 93% 29.67 in 0.5 mi ESE 10.4 mph 20.7 mph N/A   Unknown
9:55 PM 39.2 °F 31.2 °F 37.4 °F 93% 29.66 in 0.2 mi ESE 13.8 mph 20.7 mph N/A   Unknown
10:15 PM 39.2 °F 31.2 °F 37.4 °F 93% 29.67 in 0.2 mi SE 13.8 mph 19.6 mph N/A   Unknown
10:35 PM 41.0 °F 33.5 °F 39.2 °F 93% 29.66 in 0.5 mi SE 13.8 mph - N/A Rain Light Rain
10:55 PM 42.8 °F 35.4 °F 41.0 °F 93% 29.64 in 2.0 mi ESE 15.0 mph - 0.06 in Rain Rain
11:15 PM 42.8 °F - 41.0 °F 93% 29.66 in 2.5 mi Calm Calm - 0.04 in Rain Rain
11:35 PM 44.6 °F - 42.8 °F 93% 29.65 in 1.2 mi Calm Calm - 0.26 in Rain Heavy Rain
11:55 PM 44.6 °F 38.8 °F 44.6 °F 100% 29.64 in 2.0 mi SSE 11.5 mph - 0.28 in   Overcast